KUIPER-00186

导读 | 豆包AI

KUIPER-00186是美国亚马逊公司“柯伊伯计划”(Project Kuiper)低轨卫星互联网星座中的卫星,于2025年12月15日发射。柯伊伯计划旨在通过数千颗低轨卫星组网,为全球尤其是偏远区域提供高速低延迟、可负担的互联网接入服务,对标SpaceX星链项目,KUIPER-00186是该星座构建全球卫星互联网覆盖的组成单元。

Basic Information
目录编号:
67140
目录名称:
KUIPER-00186
国际标识:
2025-301H
轨道中心:
EARTH
卫星名称:
KUIPER-00186
卫星全名:
KUIPER-00186
卫星状态:
在轨 (已飞行161 天)
发射日期:
2025-12-15 UTC
国别 :
美国 (US)
星等 :
--
Orbit Information
数据来源 国际轨道数据 AOE轨道数据
星历时间 2026-05-24T11:27:05+0800
1天前
查看轨道信息
2026-05-22T02:00:00+0800
3天前
查看轨道信息
半长轴 7007.668km 7007.55km
偏心率 0.000062 0.0000308
轨道倾角 51.901° 51.904°
近地点辐角 112.223° 80.305°
升交点赤经 104.466° 115.054°
平近点角 247.880° 118.308°
近地点 629.096km 629.197km
远地点 629.966km 629.629km
周期 97.302分钟 97.299分钟
每日圈数 14.799345 14.799721
Detailed Information
使用方式:
暂无
2D Orbit Map
3D Orbit Map
Orbit Altitude Analysis Chart
Orbit Inclination Analysis Chart
Orbit Comprehensive Analysis Chart
View Comprehensive Chart